DateTimeUTC,F1_A11,F1_S11,BsB_S11,BsG_S11,BsR_S11,BbsB_S11,BbsG_S11,BbsR_S11,BaB_A11,BaG_A11,BaR_A11,Tu_S11,T_S11,Uu_S11,U_S11,P_S11,T1_A11
2021-06-09T06:00:00Z,00000200,20000000,,,,,,,0000.10,0000.20,0000.58,17.0,23.8,08.2,05.4,0668.0,30.9
2021-06-09T06:01:00Z,00000200,20000000,,,,,,,0000.11,-000.20,-000.38,17.0,23.8,08.2,05.4,0668.0,30.9
2021-06-09T06:02:00Z,00000200,20000000,,,,,,,-000.11,-000.51,-000.09,17.0,23.8,08.2,05.4,0668.0,30.9
2021-06-09T06:03:00Z,00000200,60000000,,,,,,,0000.31,0000.81,0000.16,17.0,23.8,08.2,05.4,0668.0,30.9
2021-06-09T06:04:00Z,00000200,40000000,0000.91,0000.46,0000.53,-000.67,0000.13,-000.01,0000.40,0000.48,0000.96,17.1,23.6,08.2,05.5,0668.8,30.9
2021-06-09T06:05:00Z,00000200,00000000,0001.15,0000.60,0000.57,0000.14,0000.00,0000.21,-000.14,-000.04,-000.76,17.2,23.6,08.2,05.5,0668.9,30.9
2021-06-09T06:06:00Z,00000200,00000000,0001.33,0000.43,0000.51,-000.23,0000.48,0000.34,0000.17,-000.17,0000.25,17.2,23.6,08.2,05.5,0668.9,30.9
2021-06-09T06:07:00Z,00000200,00000000,0001.24,0000.46,0000.82,0000.38,0000.09,0000.03,0000.48,0000.26,0000.47,17.2,23.6,08.2,05.5,0668.9,30.9
2021-06-09T06:08:00Z,00000200,00000000,0001.25,0000.67,0000.37,0000.20,0000.14,0000.23,0000.18,0000.19,0000.05,17.2,23.6,08.1,05.4,0668.8,30.9
2021-06-09T06:09:00Z,00000200,00000000,0001.65,0000.46,0000.48,0000.70,0000.21,0000.19,0000.21,0000.42,0000.38,17.2,23.6,08.2,05.5,0668.8,30.9
2021-06-09T06:10:00Z,00000200,00000000,0001.48,0000.30,0000.48,0000.30,0000.21,0000.19,-000.28,0000.05,-000.43,17.2,23.6,08.1,05.4,0668.8,30.9
2021-06-09T06:11:00Z,00000200,00000000,0000.98,0000.49,0000.24,0000.31,0000.08,-000.04,0000.03,-000.30,0000.14,17.2,23.6,07.9,05.3,0668.8,30.9
2021-06-09T06:12:00Z,00000200,00000000,0000.74,0000.34,0000.41,-000.08,-000.02,-000.21,0000.58,0000.16,0000.27,17.2,23.6,07.8,05.3,0668.9,30.9
2021-06-09T06:13:00Z,00000200,00000000,0001.09,0000.42,0000.38,0000.32,0000.11,0000.23,0000.26,0000.27,0000.17,17.2,23.6,07.8,05.3,0668.8,30.9
2021-06-09T06:14:00Z,00000200,00000000,0001.02,0000.38,0000.54,0000.03,0000.21,0000.07,0000.37,0000.56,0000.07,17.2,23.5,07.9,05.3,0668.7,30.9
2021-06-09T06:15:00Z,00000200,00000000,0001.34,0000.52,0000.37,0000.53,0000.17,0000.05,0000.28,0000.24,0000.39,17.2,23.5,07.9,05.4,0668.7,30.9
2021-06-09T06:16:00Z,00000200,00000000,0000.84,0000.54,0000.71,0000.51,0000.11,0000.45,0000.56,0000.78,0000.80,17.2,23.5,08.2,05.5,0668.7,30.9
2021-06-09T06:17:00Z,00000200,00000000,0000.95,0000.38,0000.21,0000.06,-000.17,-000.02,0000.08,-000.34,-000.39,17.2,23.5,08.3,05.6,0668.7,30.9
2021-06-09T06:18:00Z,00000200,00000000,0000.60,0000.27,0000.30,0000.31,0000.23,0000.11,0000.17,0000.41,0000.26,17.2,23.5,08.2,05.5,0668.7,30.9
2021-06-09T06:19:00Z,00000200,00000000,0000.58,0000.32,0000.40,-000.26,0000.11,-000.16,0000.47,0000.54,0000.46,17.2,23.5,08.3,05.6,0668.7,30.9
2021-06-09T06:20:00Z,00000200,00000000,0001.15,0000.59,0000.11,0000.07,0000.12,0000.09,0000.50,0000.69,0000.32,17.2,23.5,08.3,05.6,0668.7,30.9
2021-06-09T06:21:00Z,00000200,00000000,0001.75,0000.48,0000.37,0000.55,0000.28,0000.11,0000.67,-000.05,-000.01,17.2,23.5,08.3,05.6,0668.7,30.9
2021-06-09T06:22:00Z,00000200,00000000,0001.09,0000.66,0000.34,0000.55,0000.22,0000.18,-000.16,0000.01,0000.32,17.2,23.5,08.2,05.5,0668.7,30.9
2021-06-09T06:23:00Z,00000200,00000000,0001.08,0000.89,0000.32,-000.42,-000.08,0000.25,0000.27,0000.07,0000.18,17.2,23.5,08.3,05.6,0668.7,30.9
2021-06-09T06:24:00Z,00000200,00000000,0000.62,0000.53,0000.13,-000.35,0000.35,-000.06,0000.49,0000.81,0000.43,17.2,23.5,08.2,05.6,0668.7,30.9
2021-06-09T06:25:00Z,00000200,00000000,0001.00,0000.39,0000.45,-000.01,-000.03,-000.04,-000.22,-000.34,-000.38,17.2,23.5,08.2,05.6,0668.7,30.9
2021-06-09T06:26:00Z,00000200,00000000,0000.95,0000.25,0000.27,0000.08,-000.06,-000.00,0000.88,0000.64,0000.33,17.2,23.5,08.2,05.6,0668.7,30.9
2021-06-09T06:27:00Z,00000200,00000000,0001.36,0000.42,0000.47,-000.37,0000.23,0000.05,-000.12,0000.34,0000.51,17.2,23.5,08.3,05.6,0668.7,31.0
2021-06-09T06:28:00Z,00000200,00000000,0000.74,0000.28,0000.22,0000.27,0000.22,-000.04,0000.58,0000.03,0000.12,17.2,23.5,08.3,05.6,0668.7,30.9
2021-06-09T06:29:00Z,00000200,00000000,0000.70,0000.55,0000.31,-000.06,0000.11,0000.12,0000.04,0000.30,0000.13,17.2,23.5,08.3,05.6,0668.7,30.9
2021-06-09T06:30:00Z,00000200,00000000,0001.01,0000.68,0000.32,-000.03,0000.34,0000.05,0000.47,0000.66,0000.24,17.2,23.5,08.2,05.6,0668.7,30.9
2021-06-09T06:31:00Z,00000200,00000000,0000.81,0000.37,0000.33,0000.02,-000.22,0000.01,0000.14,-000.34,0000.08,17.2,23.5,08.2,05.6,0668.6,30.9
2021-06-09T06:32:00Z,00000200,00000000,0001.16,0000.27,0000.53,-000.17,0000.03,0000.29,0000.32,0000.02,0000.02,17.2,23.5,08.2,05.6,0668.7,30.9
2021-06-09T06:33:00Z,00000200,00000000,0001.19,0000.60,0000.24,0000.24,0000.15,0000.14,0000.19,0000.50,0000.67,17.2,23.5,08.2,05.6,0668.7,30.9
2021-06-09T06:34:00Z,00000200,00000000,0001.15,0000.41,0000.33,0000.16,0000.05,-000.01,0000.05,0000.28,-000.37,17.2,23.5,08.1,05.5,0668.6,30.9
2021-06-09T06:35:00Z,00000200,00000000,0000.99,0000.36,0000.36,0000.17,-000.02,-000.06,0000.18,-000.20,0000.20,17.2,23.5,08.2,05.5,0668.6,30.9
2021-06-09T06:36:00Z,00000200,00000000,0000.41,0000.43,0000.36,0000.16,0000.32,0000.20,0000.03,0000.33,0000.25,17.2,23.6,08.0,05.4,0668.6,30.9
2021-06-09T06:37:00Z,00000200,00000000,0000.80,0000.69,0000.51,-000.03,0000.25,-000.12,0000.31,0000.53,-000.06,17.2,23.5,08.0,05.4,0668.6,30.9
2021-06-09T06:38:00Z,00000200,00000000,0000.98,0000.48,0000.49,0000.56,0000.26,0000.10,-000.11,0000.03,0000.21,17.3,23.5,08.0,05.4,0668.6,30.9
2021-06-09T06:39:00Z,00000200,00000000,0000.92,0000.32,0000.42,0000.44,-000.01,0000.31,0000.75,0000.20,0000.06,17.2,23.5,08.0,05.4,0668.6,30.9
2021-06-09T06:40:00Z,00000200,00000000,0000.47,0000.53,0000.30,-000.15,0000.15,0000.08,-000.26,0000.33,0000.21,17.3,23.5,07.7,05.2,0668.6,30.9
2021-06-09T06:41:00Z,00000200,00000000,0001.10,0000.74,0000.35,0000.21,0000.03,-000.02,0000.60,-000.05,0000.63,17.3,23.5,07.6,05.2,0668.6,30.9
2021-06-09T06:42:00Z,00000200,00000000,0000.73,0000.63,0000.37,0000.11,0000.20,0000.17,-000.25,-000.04,-000.38,17.3,23.6,07.7,05.2,0668.6,30.9
2021-06-09T06:43:00Z,00000200,00000000,0001.28,0000.25,0000.73,0000.33,-000.14,0000.15,-000.36,-000.02,-000.04,17.3,23.5,07.6,05.1,0668.6,30.9
2021-06-09T06:44:00Z,00000200,00000000,0001.01,0000.75,0000.52,0000.33,0000.31,0000.04,0001.27,0000.68,0000.57,17.3,23.5,07.6,05.1,0668.6,30.9
2021-06-09T06:45:00Z,00000200,00010000,0000.51,0000.69,0000.32,-000.37,0000.40,0000.10,-000.10,0000.03,-000.17,17.3,23.5,07.7,05.2,0668.6,30.9
2021-06-09T06:46:00Z,00000200,00000000,0001.39,0000.44,0000.43,-000.03,0000.19,0000.12,0000.61,0000.34,0000.30,17.3,23.5,07.8,05.3,0668.6,30.9
2021-06-09T06:47:00Z,00000200,00000000,0000.44,0000.94,0000.45,0000.60,0000.39,0000.19,-000.03,0000.39,0000.46,17.3,23.5,07.8,05.3,0668.6,31.0
2021-06-09T06:48:00Z,00000200,00000000,0000.67,0000.95,0000.63,0000.20,0000.17,0000.45,0000.45,0000.56,0000.34,17.3,23.6,07.7,05.2,0668.6,30.9
2021-06-09T06:49:00Z,00000200,00000000,0000.93,0000.41,0000.48,-000.22,0000.28,0000.31,0000.41,0000.11,0000.30,17.3,23.6,07.8,05.3,0668.5,31.0
2021-06-09T06:50:00Z,00000200,00000000,0001.02,0000.46,0000.80,0000.17,0000.14,0000.06,0000.13,0000.42,0000.02,17.3,23.6,07.9,05.3,0668.5,30.9
2021-06-09T06:51:00Z,00000200,00000000,0000.94,0000.71,0000.62,-000.01,0000.03,0000.15,0000.58,0000.06,0000.46,17.3,23.6,08.0,05.4,0668.5,30.9
2021-06-09T06:52:00Z,00000200,00000000,0001.17,0000.68,0000.14,-000.06,0000.20,0000.35,0000.26,0000.42,-000.16,17.3,23.5,08.0,05.4,0668.5,30.9
2021-06-09T06:53:00Z,00000200,00000000,0000.27,0000.73,0000.26,-000.07,-000.08,0000.26,0000.00,0000.07,0000.02,17.3,23.5,08.0,05.4,0668.5,30.9
2021-06-09T06:54:00Z,00000200,00000000,0000.84,0000.47,0000.23,0000.15,0000.01,0000.03,0000.68,0000.20,0000.38,17.3,23.5,08.0,05.4,0668.5,30.9
2021-06-09T06:55:00Z,00000200,00000000,0000.90,0000.48,0000.36,-000.07,0000.03,-000.12,0000.31,0000.56,0000.36,17.3,23.5,08.0,05.4,0668.6,30.9
2021-06-09T06:56:00Z,00000200,00000000,0000.50,0000.53,0000.60,0000.05,0000.13,0000.16,0000.17,0000.03,0000.24,17.3,23.5,07.8,05.3,0668.6,30.9
2021-06-09T06:57:00Z,00000200,40000000,,,,,,,-000.39,-000.25,0000.07,17.3,23.6,08.1,05.5,0668.5,31.0
2021-06-09T06:58:00Z,00000200,60000000,,,,,,,0000.20,0000.46,-000.14,17.1,23.7,08.0,05.3,0667.6,30.9
2021-06-09T06:59:00Z,00000200,20000000,,,,,,,-000.22,-000.10,-000.35,17.1,23.8,07.9,05.2,0667.6,30.9
